Tracking 31029 objects as of 15-Jul-2025
HD Live streaming from Space Station
objects crossing your sky now

ONEWEB-0060

Track ONEWEB-0060 now!
10-day predictions
ONEWEB-0060 is classified as:


NORAD ID: 45455
Int'l Code: 2020-020AH
Perigee: 1,224.6 km
Apogee: 1,227.2 km
Inclination: 87.9 °
Period: 109.8 minutes
Semi major axis: 7596 km
RCS: Unknown
Launch date: March 21, 2020
Source: United Kingdom (UK)
Launch site: TYURATAM MISSILE AND SPACE COMPLEX (TTMTR)
Your satellite tracking list
Your tracking list is empty




NASA's NSSDC Master Catalog

Two Line Element Set (TLE):
1 45455U 20020AH  25196.62533483  .00000180  00000-0  47333-3 0  9996
2 45455  87.8827  88.1637 0001704  76.8539 283.2779 13.11147662258430
Source of the keplerian elements: AFSPC